Location: Winthrop
(48.4780°N, 120.1850°W)
Time: 02:37:20
(UTC-07:00)

Transit 2A - Pass Details

Date: 14 June 2024
Orbit: 591 x 960 km, 66.7° (Epoch: 23 July)

Event Time Altitude Azimuth Distance (km) Brightness Sun altitude
Rises 23:10:55 0° 318° (NW) 3,351 10.9 -14.1°
Reaches altitude 10° 23:14:32 10° 343° (NNW) 2,497 10.1 -14.3°
Maximum altitude 23:17:42 15° 16° (NNE) 2,238 9.1 -14.5°
Drops below altitude 10° 23:20:58 10° 49° (NE) 2,610 9.0 -14.8°
Sets 23:24:54 0° 72° (ENE) 3,603 9.4 -15.0°
